Location: Pinon Hills
(34.4429°N, 117.6403°W)
Time: 05:21:49
(UTC-07:00)

Uosat F - Visible Passes

Search period start: 02 August 2015 00:00
Search period end: 12 August 2015 00:00
Orbit: 751 x 761 km, 98.7° (Epoch: 01 August)

Date Brightness Start Highest point End Pass type
(mag) Time Alt. Az. Time Alt. Az. Time Alt. Az.
02 Aug 14.2 04:37:24 10° E 04:38:00 10° E 04:38:59 10° E visible
03 Aug 12.3 05:33:13 10° NNE 05:38:01 45° E 05:42:48 10° S visible
04 Aug 13.7 04:55:11 10° NE 04:58:23 18° E 05:01:47 10° SE visible
06 Aug 13.1 05:14:25 10° NE 05:18:40 28° E 05:22:58 10° SSE visible
07 Aug 14.2 04:38:13 10° E 04:38:52 10° E 04:39:53 10° ESE visible
08 Aug 12.3 05:34:05 10° NNE 05:38:53 45° E 05:43:40 10° S visible
09 Aug 13.7 04:56:01 10° NE 04:59:14 18° E 05:02:39 10° SE visible
11 Aug 13.1 05:15:17 10° NE 05:19:31 28° E 05:23:50 10° SSE visible
